User: anonymous   Login
Location: Unspecified
(0.0000°N, 0.0000°E)
Time: 19:12:15
(UTC+00:00)
Language:

USA 269 - Orbit

View from above orbital plane
View from above orbital plane
View from above satellite
View from above satellite

Ground track
Ground track

The orbit data is extracted from the following two-line orbital elements,

1 41724U 16047A   18335.74934239 0.00000000  00000-0  00000-0 0    00
2 41724   3.9142 330.2970 0005004 187.9867 172.0155  1.00270000    09
Epoch (UTC): 01 December 2018 17:59:03
Eccentricity: 0.0005004
inclination: 3.9142°
perigee height: 35765 km
apogee height: 35808 km
right ascension of ascending node: 330.2970°
argument of perigee: 187.9867°
revolutions per day: 1.00270000
mean anomaly at epoch: 172.0155°
orbit number at epoch: 0

The dashed part of the orbit path shows where the satellite is in the earth's shadow,  

DLR